Regional Weather Roundup
Issued by NWS Boston, MA

Home | Current Version | Previous Version | Text Only | Print | Product List | Glossary On
Versions: 1 2 3 4 5 6 7 8 9 10 11 12 13 14 15 16 17 18 19 20 21 22 23 24 25 26 27
000
ASUS41 KBOX 191510
RWRBOX

REGIONAL WEATHER ROUNDUP
NATIONAL WEATHER SERVICE TAUNTON MA
1100 AM EDT THU OCT 19 2017

NOTE:  "FAIR" INDICATES FEW OR NO CLOUDS BELOW 12,000 FEET WITH NO
SIGNIFICANT WEATHER AND/OR OBSTRUCTIONS TO VISIBILITY.

MAZALL-191600-
EASTERN MASSACHUSETTS

CITY           SKY/WX    TMP DP  RH WIND       PRES   REMARKS
BOSTON         MOSUNNY   68  49  50 SW17      30.18F
BEVERLY        SUNNY     69  49  48 SW9G17    30.17F
LAWRENCE       SUNNY     67  49  52 SW13      30.18F
BEDFORD        SUNNY     68  47  46 SW14G22   30.16F
BLUE HILL        N/A     64  51  62 SW12G22   30.19F
NORWOOD        SUNNY     69  54  58 S12       30.19F
MARSHFIELD     NOT AVBL
PLYMOUTH       SUNNY     67  53  61 SW14      30.22F
TAUNTON        SUNNY     67  52  58 S10G17    30.22F
NEW BEDFORD    SUNNY     67  54  63 SW17      30.22F
$$

MAZALL-191600-
CAPE COD AND THE ISLANDS

CITY           SKY/WX    TMP DP  RH WIND       PRES   REMARKS
FALMOUTH       MOSUNNY   66  57  72 SW16      30.24F
HYANNIS        SUNNY     66  59  78 SW16      30.23S
CHATHAM        SUNNY     67  62  84 SW12G20   30.25F
PROVINCETOWN   SUNNY     65  59  81 S15       30.22F
NANTUCKET      MOSUNNY   64  61  90 SW15      30.26F
MARTHAS VNYRD  MOSUNNY   65  60  84 SW18      30.25F
$$

MAZALL-191600-
CENTRAL AND WESTERN MASSACHUSETTS

CITY           SKY/WX    TMP DP  RH WIND       PRES   REMARKS
WORCESTER      SUNNY     63  45  51 SW16      30.19F
FITCHBURG      SUNNY     69  48  47 VRB7      30.18F
ORANGE         SUNNY     60  53  77 MISG      30.17F
SPRINGFIELD    MOSUNNY   61  59  94 S10       30.17F
WESTFIELD      SUNNY     63  51  65 S9        30.17F
NORTH ADAMS    SUNNY     66  43  43 CALM      30.15F
PITTSFIELD     SUNNY     62  42  47 VRB5      30.16F
$$

RIZALL-191600-
RHODE ISLAND

CITY           SKY/WX    TMP DP  RH WIND       PRES   REMARKS
PROVIDENCE     MOSUNNY   68  51  54 SW13      30.22F
NEWPORT        SUNNY     65  55  70 SW14G22   30.23F
BLOCK ISLAND   SUNNY     66  58  75 SW16      30.25F
SMITHFIELD     SUNNY     65  53  65 VRB5      30.22F
WESTERLY       SUNNY     68  52  56 SW9       30.24F
$$

CTZALL-191600-
CONNECTICUT

CITY           SKY/WX    TMP DP  RH WIND       PRES   REMARKS
BRADLEY INTL   MOSUNNY   64  48  56 S9        30.20F
HARTFORD       SUNNY     66  47  50 S7        30.20F
BRIDGEPORT     SUNNY     66  50  56 SW12      30.23F
DANBURY        SUNNY     65  45  48 SW15      30.23F
GROTON         SUNNY     66  53  63 SW10      30.23F
NEW HAVEN      SUNNY     66  52  60 SW8       30.23F
CHESTER        FAIR      66  50  55 SW10      30.23F
MERIDEN        SUNNY     64  50  60 S7        30.21F
WILLIMANTIC    SUNNY     60  53  77 CALM      30.22F
OXFORD         SUNNY     63  48  58 SW7       30.23F
$$

MEZ002-015-021-024-NHZ003-005-008-011-012-014-VTZ005-008-191600-
NORTHERN NEW ENGLAND

CITY           SKY/WX    TMP DP  RH WIND       PRES   REMARKS
PORTLAND ME    PTSUNNY   61  49  64 S10       30.14F
BANGOR ME      MOSUNNY   65  51  60 S15G22    30.12F
CONCORD NH     SUNNY     60  48  64 S7        30.14F
MANCHESTER NH  MOSUNNY   62  49  62 S8        30.14F
NASHUA NH      SUNNY     64  51  62 VRB5      30.16F
PORTSMOUTH NH  PTSUNNY   66  48  51 SW9       30.14F
JAFFREY NH     SUNNY     61  48  62 SW10G17   30.17F
KEENE NH       SUNNY     59  52  77 CALM      30.16F
BURLINGTON VT  MOSUNNY   65  45  48 S20G32    30.03F
MT. WASHINGTON MOSUNNY   43  28  56 SW39        N/A  WCI  31
$$

NYZ052-076-191600-
EASTERN NEW YORK

CITY           SKY/WX    TMP DP  RH WIND       PRES   REMARKS
ALBANY         MOSUNNY   60  46  59 S9        30.15F
NEW YORK CITY  MOSUNNY   65  45  48 SW10      30.23F
$$

ANZALL-191600-
MARINE OBSERVATIONS

STATION/POSITION TIME  TEMP    WIND        PRES    VSBY  WAVE
                       AIR SEA DIR/SP/G                  HT/PER
                 (UTC) (F)     (DEG/KT/KT) (MB)    (MI)  (FT/S)
BOSTON BUOY      1450   60 58  170/  8/ 10 1022.0F         1/ 3
BUZZARDS BAY     1400   62     220/ 16/ 18 1024.5F
NANTUCKET SOUND  1450   62 62  220/ 14/ 17 1024.1F         1/ 3
MASS BAY-STELLWA 1404   59 59  190/ 14/ 16 1021.7F         2/ 4
ISLE OF SHOALS   1400   57     210/ 15/ 16 1021.6F
S OF BLOCK IS    NOT AVBL
$$

......................KEY.........................
  SKY/WX - SKY CONDITION/PRESENT WEATHER
  TMP    - TEMPERATURE IN FAHRENHEIT
  DWPT   - DEWPOINT IN FAHRENHEIT
  RH     - RELATIVE HUMIDITY IN PERCENT
  WIND   - DIRECTION AND SPEED IN MPH
  PRES   - MEAN SEA LEVEL PRESSURE IN INCHES OF HG
  WCI    - WIND CHILL INDEX
  VSB    - VISIBILITY IN MILES
  HX     - HEAT INDEX
  TC     - TEMPERATURE IN CELSIUS
  VRB    - VARIABLE WIND DIRECTION
  N/A    - NOT AVAILABLE




USA.gov is the U.S. government's official web portal to all federal, state and local government web resources and services.